Welcome to the New NWS' Forecast!
Most changes are behind the scenes, but click here for differences you might notice.

Regional Weather Roundup (RWR)

Issued by State College, PA (CTP)

                            
002 
ASUS41 KCTP 201303
RWRCTP

REGIONAL WEATHER ROUNDUP
NATIONAL WEATHER SERVICE STATE COLLEGE PA
900 AM EDT MON AUG 20 2018

Note: "fair" indicates few or no clouds below 12,000 feet with no 
significant weather and/or obstructions to visibility.

* = STATION THAT DOES NOT REPORT PRECIPITATION /E.G. RAIN...SNOW...ETC/
    THUNDER OR FOG.

PAZ002>004-007>009-013>016-020>023-029>032-201400-
WESTERN PENNSYLVANIA
  
CITY           SKY/WX    TMP DP  RH WIND       PRES   REMARKS
ERIE           FAIR      70  63  78 SE14      30.04F                  
MEADVILLE      FAIR      65  64  97 E6        30.09R                  
FRANKLIN*      CLOUDY    63  62  97 E10       30.11S                  
NEW CASTLE     FAIR      67  66  97 VRB5      30.08S                  
BEAVER COUNTY  SUNNY     66  63  88 E5        30.07F                  
BUTLER*        FAIR      66  64  93 E9        30.09S                  
PITTSBURGH INT FAIR      65  64  97 E8        30.06F                  
PITTSBURGH     FAIR      66  64  93 NE5       30.06S                  
INDIANA*       PTSUNNY   68  64  88 E3        30.15S                  
LATROBE        MOSUNNY   72  66  83 E12       30.08S                  
WASHINGTON CO* FAIR      67  64  90 NE3       30.09S                  
$$

PAZ004>006-010>012-017>019-024>028-033>037-041-042-045-046-049>053-201400-
CENTRAL PENNSYLVANIA
  
CITY           SKY/WX    TMP DP  RH WIND       PRES   REMARKS
BRADFORD       CLOUDY    64  63  96 SE5       30.17R                  
DUBOIS         CLOUDY    65  64  97 E7        30.14S                  
CLEARFIELD     LGT RAIN  65  64  97 E3        30.15R FOG              
JOHNSTOWN      CLOUDY    65  63  93 CALM      30.14R                  
ALTOONA        CLOUDY    67  63  87 E3        30.14R FOG              
STATE COLLEGE  DRIZZLE   64  61  88 CALM      30.12S                  
WILLIAMSPORT   CLOUDY    68  62  81 SE3       30.12S                  
SELINSGROVE    CLOUDY    69  63  81 CALM      30.13S                  
FT INDIANTOWN  PTSUNNY   68  64  88 NE3       30.13S                  
CAPITAL CITY   CLOUDY    70  63  78 E6        30.13R                  
HARRISBURG     CLOUDY    68  63  84 CALM      30.12R                  
YORK           FAIR      69  64  84 E7        30.12R                  
$$

PAZ038>040-043-044-047-048-054-055-060>062-067>071-201400-
EASTERN PENNSYLVANIA
  
CITY           SKY/WX    TMP DP  RH WIND       PRES   REMARKS
SCRANTON       FAIR      66  58  75 E7        30.16S                  
MOUNT POCONO   CLOUDY    61  58  90 NE7       30.18R                  
ALLENTOWN      CLOUDY    70  62  76 E8        30.14R                  
QUAKERTOWN*    PTSUNNY   66  63  88 NE3       30.15R                  
READING        PTSUNNY   69  65  86 E8        30.11S                  
LANCASTER      CLOUDY    69  65  86 E6        30.12R                  
COATESVILLE    CLOUDY    66  64  94 E5G13     30.15R                  
POTTSTOWN      CLOUDY    68  65  90 NE8       30.14S                  
BLUE BELL      PTSUNNY   66  63  88 NE5       30.14R                  
DOYLESTOWN     CLOUDY    68  62  81 VRB3      30.13S                  
WILLOW GROVE   NOT AVBL                                               
NORTH PHILA    CLOUDY    72  62  71 NE10      30.13S                  
PHILADELPHIA   CLOUDY    70  62  76 E10       30.12R                  
$$